Location: Columbia
(38.9520°N, 92.3340°W)
Time: 16:59:19
(UTC-05:00)

Cosmos 2219 Rocket - Visible Passes

Search period start: 23 March 2017 00:00
Search period end: 02 April 2017 00:00
Orbit: 829 x 846 km, 71.0° (Epoch: 22 March)

Date Brightness Start Highest point End Pass type
(mag) Time Alt. Az. Time Alt. Az. Time Alt. Az.
23 Mar 2.9 05:35:24 10° S 05:40:47 53° ESE 05:46:12 10° NNE visible
24 Mar 3.0 05:19:08 10° S 05:24:27 48° ESE 05:29:49 10° NE visible
25 Mar 3.1 05:03:36 14° S 05:08:08 44° ESE 05:13:25 10° NE visible
26 Mar 3.3 04:48:29 20° SSE 04:51:48 41° ESE 04:57:00 10° NE visible
26 Mar 3.2 06:31:10 10° WSW 06:35:52 27° WNW 06:40:34 10° N visible
27 Mar 3.4 04:33:13 26° SSE 04:35:29 38° ESE 04:40:36 10° NE visible
27 Mar 3.1 06:14:58 11° WSW 06:19:28 29° WNW 06:24:19 10° N visible
28 Mar 3.4 04:17:50 30° SE 04:19:10 35° ESE 04:24:10 10° NE visible
28 Mar 3.0 05:59:34 17° WSW 06:03:05 31° WNW 06:08:02 10° N visible
29 Mar 3.5 04:02:20 31° ESE 04:02:51 32° ESE 04:07:45 10° NE visible
29 Mar 2.9 05:44:05 22° WSW 05:46:42 34° WNW 05:51:45 10° N visible
30 Mar 3.7 03:46:45 29° E 03:46:45 29° E 03:51:18 10° NE visible
30 Mar 2.8 05:28:30 29° W 05:30:19 36° WNW 05:35:28 10° N visible
31 Mar 3.9 03:31:06 26° E 03:31:06 26° E 03:34:51 10° NE visible
31 Mar 2.7 05:12:51 35° W 05:13:57 39° WNW 05:19:11 10° N visible
01 Apr 4.2 03:15:23 22° ENE 03:15:23 22° ENE 03:18:23 10° NE visible
01 Apr 2.6 04:57:08 41° WNW 04:57:34 42° WNW 05:02:53 10° N visible
